#timestamp,LO_Frequency,Hit,StdDev 
1620478815.2,286047006.9,N
1620478835.1,286047006.7,N
1620478836.0,286047006.7,N
1620478855.8,286047008.5,N
1620478875.6,286047009.1,N
1620478895.5,286047008.5,N
1620478915.3,286047010.8,Y
1620478935.2,286047001.6,P
1620478955.9,286046999.7,N
1620478975.7,286047004.4,N
1620478995.6,286047000.1,N
1620479015.4,286047001.0,N
1620479035.3,286046999.1,N
1620479055.1,286046997.3,N
1620479056.0,286046997.3,N
1620479075.8,286046996.7,N
1620479095.7,286046999.1,N
1620479115.5,286047001.2,N
1620479135.3,286046998.8,N
1620479155.2,286046997.1,N
1620479175.0,286046998.0,N
1620479175.9,286046998.0,N
1620479195.8,286046997.8,N
1620479215.6,286046997.8,N
1620479235.4,286047000.5,N
1620479255.3,286046999.3,N
1620479275.1,286046994.6,N
1620479295.8,286046987.2,Y
1620479315.7,286046985.2,P
1620479335.5,286046981.0,N
1620479355.4,286046977.7,N
1620479375.2,286046972.8,Y
1620479395.0,286046982.2,P
1620479395.9,286046982.2,P
1620479415.8,286046980.8,P
1620479435.6,286046981.5,Y
1620479455.5,286046996.6,P
1620479475.3,286046996.8,N
1620479495.1,286046996.1,N
1620479515.9,286046990.6,N
1620479535.7,286046988.8,N
1620479555.6,286046986.9,N
1620479575.4,286046990.0,N
1620479595.2,286046989.7,N
1620479615.1,286046989.1,N
1620479616.0,286046989.1,N
1620479635.8,286046987.6,N
1620479655.6,286046987.1,Y
1620479675.5,286046998.2,P
1620479695.3,286047001.0,N
1620479715.2,286046999.8,N
1620479735.9,286047000.8,N
1620479755.7,286046998.4,N
1620479775.6,286046994.9,N
1620479795.4,286046994.5,N
1620479815.3,286046991.8,N
1620479835.1,286046991.5,N
1620479836.0,286046991.5,N
1620479855.8,286046989.2,N
1620479875.7,286046988.7,N
1620479895.5,286046987.3,N
1620479915.3,286046987.5,N
1620479935.2,286046989.7,N
1620479955.0,286046988.3,N
1620479955.9,286046988.3,N
1620479975.8,286046984.1,Y
1620479995.6,286046990.7,P
1620480015.4,286046987.6,P
1620480035.3,286046988.4,P
1620480055.1,286046986.1,Y
1620480075.9,286046995.8,P
1620480095.7,286046998.0,N
1620480115.5,286046997.5,N
1620480135.4,286046995.4,N
1620480155.2,286046994.1,N
1620480175.0,286046995.6,N
1620480175.9,286046995.6,N
1620480195.8,286046997.0,N
1620480215.6,286046997.2,N
1620480235.5,286046997.0,N
1620480255.3,286046995.1,N
1620480275.1,286046995.3,N
1620480295.9,286046999.2,N
1620480315.7,286047001.0,N
1620480335.6,286046999.7,N
1620480355.4,286047002.7,N
1620480375.2,286047005.1,N
1620480395.1,286047009.5,N
1620480396.0,286047009.5,N
1620480415.8,286047010.6,N
1620480435.6,286047011.1,N
1620480455.5,286047014.0,N
1620480475.3,286047015.7,N
1620480495.2,286047024.0,Y
1620480515.9,286047029.6,P
1620480535.7,286047029.4,N
1620480555.6,286047028.0,N
1620480575.4,286047024.0,N
1620480595.2,286047020.9,N
1620480615.1,286047023.5,N
1620480616.0,286047023.5,N
1620480635.8,286047027.6,Y
1620480655.7,286047002.2,P
1620480675.5,286047004.7,N
1620480695.3,286047003.7,N
1620480715.2,286047002.6,N
1620480735.0,286046999.0,N
1620480735.9,286046999.0,N
1620480755.8,286046993.4,N
1620480775.6,286046991.3,N
1620480795.4,286046991.4,N
1620480815.3,286046990.9,N
1620480835.1,286046989.2,N
1620480855.8,286046990.7,N
1620480875.7,286046990.3,N
1620480895.5,286046990.5,N
1620480915.4,286046990.4,N
1620480935.2,286046989.0,N
1620480955.0,286046989.0,N
1620480955.9,286046989.0,N
1620480975.8,286046989.3,N
1620480995.6,286046987.6,N
1620481015.5,286046987.1,N
1620481035.3,286046985.3,N
1620481055.1,286046988.4,N
1620481075.9,286046987.7,N
1620481095.7,286046985.5,N
1620481115.5,286046986.3,N
1620481135.4,286046988.3,N
1620481155.2,286046986.6,N
1620481175.1,286046982.7,N
1620481176.0,286046982.7,N
1620481195.8,286046983.6,N
1620481215.6,286046980.8,Y
1620481235.5,286046989.3,P
1620481255.3,286046987.9,P
1620481275.1,286046985.5,P
1620481295.9,286046985.0,Y
1620481315.7,286046994.5,P
1620481335.6,286046993.1,N
1620481355.4,286046988.1,P
1620481375.2,286046986.0,Y
1620481395.1,286046993.8,P
1620481396.0,286046993.8,P
1620481415.8,286046990.4,P
1620481435.7,286046988.5,Y
1620481455.5,286046997.3,P
1620481475.3,286046996.1,N
1620481495.2,286046991.9,P
1620481515.0,286046990.5,Y
1620481515.9,286046990.5,P
1620481535.8,286046995.1,N
1620481555.6,286046995.2,N
1620481575.4,286046993.9,Y
1620481595.3,286046999.7,P
1620481615.1,286047002.2,N
1620481635.8,286047002.1,N
1620481655.7,286047002.1,N
1620481675.5,286047000.9,N
1620481695.4,286047001.1,N
1620481715.2,286046995.7,N
1620481735.0,286046994.9,N
1620481735.9,286046994.9,N
1620481755.8,286046997.5,N
1620481775.6,286046995.6,N
1620481795.4,286046994.4,N
1620481815.3,286046994.6,N
1620481835.1,286046993.2,N
1620481855.9,286046990.9,N
1620481875.7,286046990.6,N
1620481895.5,286046991.9,N
1620481915.4,286046990.1,N
1620481935.2,286046993.2,N
1620481955.1,286046990.6,N
1620481956.0,286046990.6,N
1620481975.8,286046991.6,N
1620481995.6,286046987.3,Y
1620482015.5,286046990.6,P
1620482035.3,286046991.4,P
1620482055.1,286046989.5,P
1620482075.9,286046990.0,Y
1620482095.7,286046996.3,P
1620482115.6,286046994.0,N
1620482135.4,286046994.3,P
1620482155.2,286046992.0,Y
1620482175.1,286046996.7,P
1620482176.0,286046996.7,N
1620482195.8,286046993.5,P
1620482215.7,286046993.6,Y
1620482265.5,286046996.5,E
1620482275.5,286047000.9,N
1620482295.3,286046998.4,P
1620482315.1,286046998.7,N
1620482335.9,286046999.6,N
1620482355.7,286046997.0,Y
1620482375.5,286046999.1,P
1620482395.4,286046995.5,P
